User: anonymous   Login
Location: Kopernik Observatory
(42.0014°N, 76.0372°W)
Time: 10:43:35
(UTC-04:00)
Language:

CENTAUR R/B - Orbit

View from above orbital plane
View from above orbital plane
View from above satellite
View from above satellite

Ground track
Ground track

The orbit data is extracted from the following two-line orbital elements,

1 26906U 01040B   17253.80399490 0.00000030  00000-0  34907-4 0    01
2 26906  63.4600 113.9075 0362000 341.7724  18.2276 13.44013473    05
Epoch (UTC): 10 September 2017 19:17:45
Eccentricity: 0.0362000
inclination: 63.4600°
perigee height: 824 km
apogee height: 1365 km
right ascension of ascending node: 113.9075°
argument of perigee: 341.7724°
revolutions per day: 13.44013473
mean anomaly at epoch: 18.2276°
orbit number at epoch: 0

The dashed part of the orbit path shows where the satellite is in the earth's shadow,  

DLR